CYGFM08

Last updated on Thu Oct 30 2025 00:02:23 GMT+0000 (Coordinated Universal Time)

1 41888U 16078E 25302.48782872 .00022929 00000+0 43912-3 0 9994 2 41888 34.9471 321.8373 0011253 153.4006 206.7294 15.47008888493079
UTC large
Height (km)
Speed (km/s)
/
Latitude / Longitude
Inclination (degrees)
Orbital Period (minutes)
Azimuth
Elevation
Range (km)
Doppler Factor

Next 0 passes for location: London (51.5072 / 0.1276)

Sorry there are no passes over London.